STARLINK-2303

Last updated on Sat Apr 24 2021 00:02:02 GMT+0000 (Coordinated Universal Time)

1 47981U 21024E 21113.25001157 -.01179348 00000-0 -18922-1 0 9995 2 47981 53.0489 56.1756 0001290 52.3217 232.3512 15.55416732 1819

Satellite not in orbit